Location: Gleizolles
(44.4833°N, 6.7667°E)
Time: 23:52:23
(UTC+00:00)

S-56A Canister/Altair - Pass Details

Date: 28 June 2024
Orbit: 638 x 2488 km, 38.9° (Epoch: 24 July)

Event Time Altitude Azimuth Distance (km) Brightness Sun altitude
Rises 22:05:28 0° 272° (W) 4,276 11.7 -19.2°
Reaches altitude 10° 22:08:01 10° 268° (W) 3,521 11.1 -19.3°
Maximum altitude 22:17:11 59° 192° (SSW) 2,094 9.4 -19.9°
Drops below altitude 10° 22:30:20 10° 118° (ESE) 4,929 11.2 -20.6°
Sets 22:34:36 0° 116° (ESE) 6,065 11.7 -20.8°
